Location: Devargunta
(16.7631°N, 80.9077°E)
Time: 12:27:04
(UTC+00:00)

Cosmos 2263 Rocket - Pass Details

Date: 19 January 2021
Orbit: 825 x 847 km, 71.0° (Epoch: 06 March)

Event Time Altitude Azimuth Distance (km) Brightness Sun altitude
Exits shadow 23:19:25 12° 205° (SSW) 2,258 4.3 -25.8°
Drops below altitude 10° 23:19:56 10° 202° (SSW) 2,416 4.5 -25.7°
Sets 23:22:43 0° 190° (S) 3,347 5.4 -25.1°
